"Sample Date","Sample Time","Sensor Name","Sample Value","Units","Flow Rate","Sample Interval","Sample Volume","Laser Status","Number Channels","Micron Size 0","Counts/Channel 0","Micron Size 1","Counts/Channel 1","Micron Size 2","Counts/Channel 2","Micron Size 3","Counts/Channel 3","Micron Size 4","Counts/Channel 4","Micron Size 5","Counts/Channel 5","Micron Size 6","Counts/Channel 6","Micron Size 7","Counts/Channel 7","Micron Size 8","Counts/Channel 8","Micron Size 9","Counts/Channel 9","Micron Size 10","Counts/Channel 10","Micron Size 11","Counts/Channel 11","Micron Size 12","Counts/Channel 12","Micron Size 13","Counts/Channel 13","Micron Size 14","Counts/Channel 14","Micron Size 15","Counts/Channel 15","Micron Size 16","Counts/Channel 16","Micron Size 17","Counts/Channel 17","Micron Size 18","Counts/Channel 18","Micron Size 19","Counts/Channel 19","Micron Size 20","Counts/Channel 20","Micron Size 21","Counts/Channel 21","Micron Size 22","Counts/Channel 22","Micron Size 23","Counts/Channel 23","Micron Size 24","Counts/Channel 24","Micron Size 25","Counts/Channel 25","Micron Size 26","Counts/Channel 26","Micron Size 27","Counts/Channel 27","Micron Size 28","Counts/Channel 28","Micron Size 29","Counts/Channel 29","Micron Size 30","Counts/Channel 30","Micron Size 31","Counts/Channel 31"
"07/03/06","00:00:01","AMMA06",78689.000,"cc",28346.363,6.00,2834.637,1,6,0.100,47399.000,0.200,23716.000,0.300,4767.000,0.500,1691.000,1.000,1116.000,5.000,0
"07/03/06","00:00:07","AMMA06",78986.000,"cc",28276.668,6.00,2827.667,1,6,0.100,47713.000,0.200,23832.000,0.300,4752.000,0.500,1603.000,1.000,1086.000,5.000,0
"07/03/06","00:00:13","AMMA06",78945.000,"cc",28332.803,6.00,2833.281,1,6,0.100,47910.000,0.200,23616.000,0.300,4696.000,0.500,1671.000,1.000,1052.000,5.000,0
"07/03/06","00:00:19","AMMA06",78805.000,"cc",28356.375,6.00,2835.638,1,6,0.100,47318.000,0.200,24003.000,0.300,4653.000,0.500,1685.000,1.000,1145.000,5.000,1.000
"07/03/06","00:00:25","AMMA06",78970.000,"cc",28346.582,6.00,2834.658,1,6,0.100,48015.000,0.200,23568.000,0.300,4699.000,0.500,1594.000,1.000,1094.000,5.000,0
"07/03/06","00:00:31","AMMA06",78545.000,"cc",28304.717,6.00,2830.472,1,6,0.100,47674.000,0.200,23306.000,0.300,4669.000,0.500,1756.000,1.000,1140.000,5.000,0
"07/03/06","00:00:37","AMMA06",78719.000,"cc",28305.346,6.00,2830.535,1,6,0.100,47879.000,0.200,23527.000,0.300,4561.000,0.500,1663.000,1.000,1089.000,5.000,0
"07/03/06","00:00:43","AMMA06",78321.000,"cc",28271.248,6.00,2827.125,1,6,0.100,47442.000,0.200,23531.000,0.300,4563.000,0.500,1729.000,1.000,1056.000,5.000,0
"07/03/06","00:00:49","AMMA06",78992.000,"cc",28318.242,6.00,2831.825,1,6,0.100,48106.000,0.200,23547.000,0.300,4643.000,0.500,1634.000,1.000,1062.000,5.000,0
"07/03/06","00:00:55","AMMA06",78976.000,"cc",28331.656,6.00,2833.166,1,6,0.100,47978.000,0.200,23660.000,0.300,4636.000,0.500,1648.000,1.000,1054.000,5.000,0
"07/03/06","00:01:01","AMMA06",78973.000,"cc",28330.859,6.00,2833.086,1,6,0.100,48058.000,0.200,23495.000,0.300,4649.000,0.500,1706.000,1.000,1065.000,5.000,0
"07/03/06","00:01:07","AMMA06",78677.000,"cc",28286.510,6.00,2828.651,1,6,0.100,48142.000,0.200,23332.000,0.300,4538.000,0.500,1630.000,1.000,1035.000,5.000,0
"07/03/06","00:01:13","AMMA06",78708.000,"cc",28338.699,6.00,2833.870,1,6,0.100,47976.000,0.200,23566.000,0.300,4521.000,0.500,1600.000,1.000,1045.000,5.000,0
"07/03/06","00:01:19","AMMA06",79055.000,"cc",28328.238,6.00,2832.824,1,6,0.100,48144.000,0.200,23611.000,0.300,4594.000,0.500,1637.000,1.000,1069.000,5.000,0
"07/03/06","00:01:25","AMMA06",78617.000,"cc",28281.580,6.00,2828.158,1,6,0.100,48070.000,0.200,23440.000,0.300,4418.000,0.500,1631.000,1.000,1057.000,5.000,1.000
"07/03/06","00:01:31","AMMA06",79088.000,"cc",28314.147,6.00,2831.415,1,6,0.100,48267.000,0.200,23486.000,0.300,4574.000,0.500,1668.000,1.000,1093.000,5.000,0
"07/03/06","00:01:37","AMMA06",78859.000,"cc",28356.951,6.00,2835.695,1,6,0.100,48066.000,0.200,23413.000,0.300,4668.000,0.500,1660.000,1.000,1051.000,5.000,1.000
"07/03/06","00:01:43","AMMA06",78662.000,"cc",28256.254,6.00,2825.626,1,6,0.100,47919.000,0.200,23428.000,0.300,4598.000,0.500,1624.000,1.000,1091.000,5.000,2.000
"07/03/06","00:01:49","AMMA06",79077.000,"cc",28307.986,6.00,2830.799,1,6,0.100,48396.000,0.200,23490.000,0.300,4524.000,0.500,1612.000,1.000,1054.000,5.000,1.000
"07/03/06","00:01:55","AMMA06",78901.000,"cc",28346.902,6.00,2834.690,1,6,0.100,48365.000,0.200,23224.000,0.300,4556.000,0.500,1693.000,1.000,1062.000,5.000,1.000
"07/03/06","00:02:01","AMMA06",78927.000,"cc",28307.527,6.00,2830.753,1,6,0.100,48071.000,0.200,23700.000,0.300,4523.000,0.500,1620.000,1.000,1012.000,5.000,1.000
"07/03/06","00:02:07","AMMA06",78995.000,"cc",28332.973,6.00,2833.297,1,6,0.100,48460.000,0.200,23238.000,0.300,4575.000,0.500,1658.000,1.000,1064.000,5.000,0
"07/03/06","00:02:13","AMMA06",79001.000,"cc",28335.391,6.00,2833.539,1,6,0.100,48515.000,0.200,23223.000,0.300,4614.000,0.500,1623.000,1.000,1026.000,5.000,0
"07/03/06","00:02:19","AMMA06",77938.000,"cc",28279.760,6.00,2827.976,1,6,0.100,47733.000,0.200,23031.000,0.300,4436.000,0.500,1667.000,1.000,1070.000,5.000,1.000
"07/03/06","00:02:25","AMMA06",78820.000,"cc",28296.191,6.00,2829.619,1,6,0.100,48258.000,0.200,23341.000,0.300,4486.000,0.500,1682.000,1.000,1053.000,5.000,0
"07/03/06","00:02:31","AMMA06",78332.000,"cc",28371.953,6.00,2837.196,1,6,0.100,48241.000,0.200,22910.000,0.300,4441.000,0.500,1645.000,1.000,1095.000,5.000,0
"07/03/06","00:02:37","AMMA06",78377.000,"cc",28260.000,6.00,2826.000,1,6,0.100,48140.000,0.200,23046.000,0.300,4394.000,0.500,1706.000,1.000,1091.000,5.000,0
"07/03/06","00:02:43","AMMA06",78619.000,"cc",28323.100,6.00,2832.310,1,6,0.100,48165.000,0.200,23171.000,0.300,4560.000,0.500,1620.000,1.000,1103.000,5.000,0
"07/03/06","00:02:49","AMMA06",78656.000,"cc",28324.832,6.00,2832.483,1,6,0.100,48180.000,0.200,23286.000,0.300,4418.000,0.500,1690.000,1.000,1081.000,5.000,1.000
"07/03/06","00:02:55","AMMA06",78752.000,"cc",28302.924,6.00,2830.293,1,6,0.100,48182.000,0.200,23310.000,0.300,4554.000,0.500,1633.000,1.000,1073.000,5.000,0
"07/03/06","00:03:01","AMMA06",78589.000,"cc",28305.455,6.00,2830.546,1,6,0.100,48273.000,0.200,23236.000,0.300,4497.000,0.500,1576.000,1.000,1007.000,5.000,0
"07/03/06","00:03:07","AMMA06",78684.000,"cc",28322.535,6.00,2832.254,1,6,0.100,48325.000,0.200,23270.000,0.300,4434.000,0.500,1647.000,1.000,1008.000,5.000,0
"07/03/06","00:03:13","AMMA06",78391.000,"cc",28327.098,6.00,2832.710,1,6,0.100,47863.000,0.200,23372.000,0.300,4471.000,0.500,1645.000,1.000,1040.000,5.000,0
"07/03/06","00:03:19","AMMA06",78933.000,"cc",28340.652,6.00,2834.065,1,6,0.100,48247.000,0.200,23491.000,0.300,4412.000,0.500,1756.000,1.000,1027.000,5.000,0
"07/03/06","00:03:25","AMMA06",78266.000,"cc",28295.639,6.00,2829.564,1,6,0.100,48055.000,0.200,23075.000,0.300,4433.000,0.500,1677.000,1.000,1026.000,5.000,0
"07/03/06","00:03:31","AMMA06",78071.000,"cc",28340.063,6.00,2834.006,1,6,0.100,47837.000,0.200,23144.000,0.300,4482.000,0.500,1629.000,1.000,979.000,5.000,0
"07/03/06","00:03:37","AMMA06",78509.000,"cc",28388.922,6.00,2838.892,1,6,0.100,48357.000,0.200,22880.000,0.300,4451.000,0.500,1723.000,1.000,1098.000,5.000,0
"07/03/06","00:03:43","AMMA06",78096.000,"cc",28312.549,6.00,2831.255,1,6,0.100,47645.000,0.200,23169.000,0.300,4422.000,0.500,1722.000,1.000,1137.000,5.000,1.000
"07/03/06","00:03:49","AMMA06",78809.000,"cc",28306.406,6.00,2830.641,1,6,0.100,47841.000,0.200,23621.000,0.300,4597.000,0.500,1642.000,1.000,1108.000,5.000,0
"07/03/06","00:03:55","AMMA06",78791.000,"cc",28348.447,6.00,2834.845,1,6,0.100,48105.000,0.200,23581.000,0.300,4463.000,0.500,1607.000,1.000,1034.000,5.000,1.000
"07/03/06","00:04:01","AMMA06",78855.000,"cc",28275.279,6.00,2827.528,1,6,0.100,48046.000,0.200,23652.000,0.300,4471.000,0.500,1684.000,1.000,1002.000,5.000,0
"07/03/06","00:04:07","AMMA06",79091.000,"cc",28298.613,6.00,2829.862,1,6,0.100,48108.000,0.200,23588.000,0.300,4583.000,0.500,1711.000,1.000,1101.000,5.000,0
"07/03/06","00:04:13","AMMA06",79013.000,"cc",28312.469,6.00,2831.247,1,6,0.100,48060.000,0.200,23560.000,0.300,4648.000,0.500,1659.000,1.000,1085.000,5.000,1.000
"07/03/06","00:04:19","AMMA06",78982.000,"cc",28339.639,6.00,2833.964,1,6,0.100,48036.000,0.200,23748.000,0.300,4653.000,0.500,1546.000,1.000,997.000,5.000,2.000
"07/03/06","00:04:25","AMMA06",78532.000,"cc",28340.723,6.00,2834.073,1,6,0.100,47566.000,0.200,23609.000,0.300,4681.000,0.500,1637.000,1.000,1038.000,5.000,1.000
"07/03/06","00:04:31","AMMA06",78326.000,"cc",28317.986,6.00,2831.799,1,6,0.100,47503.000,0.200,23587.000,0.300,4626.000,0.500,1612.000,1.000,996.000,5.000,2.000
"07/03/06","00:04:37","AMMA06",78427.000,"cc",28306.318,6.00,2830.632,1,6,0.100,47242.000,0.200,23889.000,0.300,4613.000,0.500,1615.000,1.000,1068.000,5.000,0
"07/03/06","00:04:43","AMMA06",78535.000,"cc",28321.295,6.00,2832.130,1,6,0.100,47396.000,0.200,23617.000,0.300,4792.000,0.500,1585.000,1.000,1145.000,5.000,0
"07/03/06","00:04:49","AMMA06",79039.000,"cc",28232.041,6.00,2823.204,1,6,0.100,47551.000,0.200,24002.000,0.300,4765.000,0.500,1664.000,1.000,1057.000,5.000,0
"07/03/06","00:04:55","AMMA06",78730.000,"cc",28283.475,6.00,2828.348,1,6,0.100,47546.000,0.200,23918.000,0.300,4675.000,0.500,1569.000,1.000,1022.000,5.000,0
"07/03/06","00:05:01","AMMA06",78639.000,"cc",28367.115,6.00,2836.712,1,6,0.100,47403.000,0.200,23788.000,0.300,4722.000,0.500,1637.000,1.000,1089.000,5.000,0
"07/03/06","00:05:07","AMMA06",78429.000,"cc",28339.996,6.00,2834.000,1,6,0.100,47023.000,0.200,23989.000,0.300,4696.000,0.500,1660.000,1.000,1060.000,5.000,1.000
"07/03/06","00:05:13","AMMA06",78926.000,"cc",28316.996,6.00,2831.700,1,6,0.100,47540.000,0.200,23946.000,0.300,4733.000,0.500,1603.000,1.000,1102.000,5.000,2.000
"07/03/06","00:05:19","AMMA06",78303.000,"cc",28318.838,6.00,2831.884,1,6,0.100,46876.000,0.200,23909.000,0.300,4770.000,0.500,1670.000,1.000,1078.000,5.000,0
"07/03/06","00:05:25","AMMA06",78666.000,"cc",28323.910,6.00,2832.391,1,6,0.100,47495.000,0.200,23874.000,0.300,4672.000,0.500,1588.000,1.000,1037.000,5.000,0
"07/03/06","00:05:31","AMMA06",78568.000,"cc",28303.984,6.00,2830.399,1,6,0.100,47234.000,0.200,23786.000,0.300,4761.000,0.500,1670.000,1.000,1117.000,5.000,0
"07/03/06","00:05:37","AMMA06",78620.000,"cc",28309.947,6.00,2830.995,1,6,0.100,47215.000,0.200,24011.000,0.300,4734.000,0.500,1600.000,1.000,1060.000,5.000,0
"07/03/06","00:05:43","AMMA06",78646.000,"cc",28352.291,6.00,2835.229,1,6,0.100,47159.000,0.200,23864.000,0.300,4832.000,0.500,1665.000,1.000,1126.000,5.000,0
"07/03/06","00:05:49","AMMA06",78781.000,"cc",28318.969,6.00,2831.897,1,6,0.100,47243.000,0.200,23961.000,0.300,4769.000,0.500,1643.000,1.000,1165.000,5.000,0
"07/03/06","00:05:55","AMMA06",78611.000,"cc",28308.238,6.00,2830.824,1,6,0.100,47310.000,0.200,24012.000,0.300,4680.000,0.500,1592.000,1.000,1016.000,5.000,1.000
"07/03/06","00:06:01","AMMA06",78589.000,"cc",28360.164,6.00,2836.017,1,6,0.100,47085.000,0.200,24039.000,0.300,4736.000,0.500,1595.000,1.000,1134.000,5.000,0
"07/03/06","00:06:07","AMMA06",78636.000,"cc",28346.336,6.00,2834.634,1,6,0.100,47366.000,0.200,23909.000,0.300,4749.000,0.500,1551.000,1.000,1060.000,5.000,1.000
"07/03/06","00:06:13","AMMA06",78516.000,"cc",28294.023,6.00,2829.403,1,6,0.100,47274.000,0.200,23804.000,0.300,4782.000,0.500,1570.000,1.000,1085.000,5.000,1.000
"07/03/06","00:06:19","AMMA06",78416.000,"cc",28291.908,6.00,2829.191,1,6,0.100,47098.000,0.200,23869.000,0.300,4687.000,0.500,1637.000,1.000,1124.000,5.000,1.000
"07/03/06","00:06:25","AMMA06",78965.000,"cc",28302.822,6.00,2830.283,1,6,0.100,47799.000,0.200,23800.000,0.300,4688.000,0.500,1661.000,1.000,1017.000,5.000,0
"07/03/06","00:06:31","AMMA06",78640.000,"cc",28352.369,6.00,2835.237,1,6,0.100,47234.000,0.200,23911.000,0.300,4833.000,0.500,1576.000,1.000,1085.000,5.000,1.000
"07/03/06","00:06:37","AMMA06",78742.000,"cc",28324.129,6.00,2832.413,1,6,0.100,47312.000,0.200,24021.000,0.300,4798.000,0.500,1536.000,1.000,1075.000,5.000,0
"07/03/06","00:06:43","AMMA06",78756.000,"cc",28304.248,6.00,2830.425,1,6,0.100,47317.000,0.200,24133.000,0.300,4589.000,0.500,1624.000,1.000,1093.000,5.000,0
"07/03/06","00:06:49","AMMA06",78938.000,"cc",28272.455,6.00,2827.246,1,6,0.100,47426.000,0.200,24000.000,0.300,4753.000,0.500,1629.000,1.000,1129.000,5.000,1.000
"07/03/06","00:06:55","AMMA06",78906.000,"cc",28301.824,6.00,2830.183,1,6,0.100,47323.000,0.200,24079.000,0.300,4754.000,0.500,1616.000,1.000,1134.000,5.000,0
"07/03/06","00:07:01","AMMA06",78632.000,"cc",28290.662,6.00,2829.066,1,6,0.100,47511.000,0.200,23771.000,0.300,4657.000,0.500,1631.000,1.000,1061.000,5.000,1.000
"07/03/06","00:07:07","AMMA06",78540.000,"cc",28310.514,6.00,2831.052,1,6,0.100,47377.000,0.200,23974.000,0.300,4584.000,0.500,1572.000,1.000,1033.000,5.000,0
"07/03/06","00:07:13","AMMA06",78633.000,"cc",28321.273,6.00,2832.127,1,6,0.100,47187.000,0.200,24025.000,0.300,4684.000,0.500,1637.000,1.000,1100.000,5.000,0
"07/03/06","00:07:19","AMMA06",78691.000,"cc",28350.869,6.00,2835.087,1,6,0.100,47604.000,0.200,23879.000,0.300,4568.000,0.500,1588.000,1.000,1052.000,5.000,0
"07/03/06","00:07:25","AMMA06",78495.000,"cc",28306.713,6.00,2830.671,1,6,0.100,47662.000,0.200,23529.000,0.300,4677.000,0.500,1576.000,1.000,1051.000,5.000,0
"07/03/06","00:07:31","AMMA06",78781.000,"cc",28315.397,6.00,2831.540,1,6,0.100,47943.000,0.200,23586.000,0.300,4510.000,0.500,1663.000,1.000,1079.000,5.000,0
"07/03/06","00:07:37","AMMA06",78810.000,"cc",28290.160,6.00,2829.016,1,6,0.100,47720.000,0.200,23706.000,0.300,4631.000,0.500,1646.000,1.000,1107.000,5.000,0
"07/03/06","00:07:43","AMMA06",79247.000,"cc",28319.486,6.00,2831.949,1,6,0.100,48043.000,0.200,23908.000,0.300,4661.000,0.500,1610.000,1.000,1025.000,5.000,0
"07/03/06","00:07:49","AMMA06",78160.000,"cc",28337.713,6.00,2833.772,1,6,0.100,47493.000,0.200,23383.000,0.300,4570.000,0.500,1665.000,1.000,1049.000,5.000,0
"07/03/06","00:07:55","AMMA06",78429.000,"cc",28338.242,6.00,2833.825,1,6,0.100,47664.000,0.200,23533.000,0.300,4512.000,0.500,1659.000,1.000,1061.000,5.000,0
"07/03/06","00:08:01","AMMA06",78801.000,"cc",28306.820,6.00,2830.682,1,6,0.100,48159.000,0.200,23410.000,0.300,4564.000,0.500,1597.000,1.000,1071.000,5.000,0
"07/03/06","00:08:07","AMMA06",78403.000,"cc",28314.703,6.00,2831.471,1,6,0.100,47757.000,0.200,23313.000,0.300,4534.000,0.500,1701.000,1.000,1098.000,5.000,0
"07/03/06","00:08:13","AMMA06",78414.000,"cc",28297.344,6.00,2829.735,1,6,0.100,47577.000,0.200,23455.000,0.300,4593.000,0.500,1678.000,1.000,1110.000,5.000,1.000
"07/03/06","00:08:19","AMMA06",78037.000,"cc",28308.022,6.00,2830.802,1,6,0.100,47549.000,0.200,23280.000,0.300,4529.000,0.500,1648.000,1.000,1031.000,5.000,0
"07/03/06","00:08:25","AMMA06",78728.000,"cc",28301.432,6.00,2830.143,1,6,0.100,47970.000,0.200,23634.000,0.300,4524.000,0.500,1625.000,1.000,975.000,5.000,0
"07/03/06","00:08:31","AMMA06",78336.000,"cc",28339.500,6.00,2833.950,1,6,0.100,47762.000,0.200,23378.000,0.300,4527.000,0.500,1631.000,1.000,1038.000,5.000,0
"07/03/06","00:08:37","AMMA06",78683.000,"cc",28333.467,6.00,2833.347,1,6,0.100,47827.000,0.200,23677.000,0.300,4604.000,0.500,1576.000,1.000,999.000,5.000,0
"07/03/06","00:08:43","AMMA06",78270.000,"cc",28376.773,6.00,2837.678,1,6,0.100,47808.000,0.200,23267.000,0.300,4443.000,0.500,1628.000,1.000,1124.000,5.000,0
"07/03/06","00:08:49","AMMA06",77922.000,"cc",28343.281,6.00,2834.328,1,6,0.100,47545.000,0.200,23242.000,0.300,4451.000,0.500,1640.000,1.000,1044.000,5.000,0
"07/03/06","00:08:55","AMMA06",77973.000,"cc",28277.977,6.00,2827.798,1,6,0.100,47607.000,0.200,23130.000,0.300,4542.000,0.500,1617.000,1.000,1076.000,5.000,1.000
"07/03/06","00:09:01","AMMA06",78480.000,"cc",28305.629,6.00,2830.563,1,6,0.100,47643.000,0.200,23597.000,0.300,4520.000,0.500,1679.000,1.000,1041.000,5.000,0
"07/03/06","00:09:07","AMMA06",78572.000,"cc",28273.875,6.00,2827.388,1,6,0.100,48151.000,0.200,23174.000,0.300,4581.000,0.500,1619.000,1.000,1047.000,5.000,0
"07/03/06","00:09:13","AMMA06",77725.000,"cc",28305.807,6.00,2830.581,1,6,0.100,47311.000,0.200,23191.000,0.300,4546.000,0.500,1638.000,1.000,1038.000,5.000,1.000
"07/03/06","00:09:19","AMMA06",78387.000,"cc",28325.732,6.00,2832.574,1,6,0.100,47747.000,0.200,23397.000,0.300,4566.000,0.500,1653.000,1.000,1023.000,5.000,1.000
"07/03/06","00:09:25","AMMA06",78599.000,"cc",28336.061,6.00,2833.606,1,6,0.100,48051.000,0.200,23358.000,0.300,4512.000,0.500,1583.000,1.000,1094.000,5.000,1.000
"07/03/06","00:09:31","AMMA06",78178.000,"cc",28300.102,6.00,2830.010,1,6,0.100,47382.000,0.200,23570.000,0.300,4546.000,0.500,1646.000,1.000,1033.000,5.000,1.000
"07/03/06","00:09:37","AMMA06",78780.000,"cc",28321.908,6.00,2832.191,1,6,0.100,48051.000,0.200,23438.000,0.300,4628.000,0.500,1612.000,1.000,1051.000,5.000,0
"07/03/06","00:09:43","AMMA06",77997.000,"cc",28331.832,6.00,2833.183,1,6,0.100,47387.000,0.200,23357.000,0.300,4553.000,0.500,1676.000,1.000,1022.000,5.000,2.000
"07/03/06","00:09:49","AMMA06",78526.000,"cc",28334.984,6.00,2833.499,1,6,0.100,47542.000,0.200,23694.000,0.300,4616.000,0.500,1617.000,1.000,1057.000,5.000,0
"07/03/06","00:09:55","AMMA06",78221.000,"cc",28270.201,6.00,2827.020,1,6,0.100,47179.000,0.200,23703.000,0.300,4648.000,0.500,1639.000,1.000,1052.000,5.000,0
"07/03/06","00:10:01","AMMA06",78803.000,"cc",28339.977,6.00,2833.998,1,6,0.100,47582.000,0.200,23856.000,0.300,4676.000,0.500,1633.000,1.000,1055.000,5.000,1.000
"07/03/06","00:10:07","AMMA06",78457.000,"cc",28317.996,6.00,2831.800,1,6,0.100,47540.000,0.200,23681.000,0.300,4549.000,0.500,1620.000,1.000,1067.000,5.000,0
"07/03/06","00:10:13","AMMA06",79168.000,"cc",28322.514,6.00,2832.252,1,6,0.100,47847.000,0.200,23876.000,0.300,4706.000,0.500,1661.000,1.000,1078.000,5.000,0
"07/03/06","00:10:19","AMMA06",79206.000,"cc",28322.496,6.00,2832.250,1,6,0.100,48210.000,0.200,23822.000,0.300,4545.000,0.500,1668.000,1.000,961.000,5.000,0
"07/03/06","00:10:25","AMMA06",78736.000,"cc",28305.561,6.00,2830.556,1,6,0.100,47574.000,0.200,23818.000,0.300,4638.000,0.500,1644.000,1.000,1061.000,5.000,1.000
"07/03/06","00:10:31","AMMA06",78477.000,"cc",28347.852,6.00,2834.785,1,6,0.100,47563.000,0.200,23671.000,0.300,4663.000,0.500,1580.000,1.000,1000.000,5.000,0
"07/03/06","00:10:37","AMMA06",78801.000,"cc",28325.971,6.00,2832.597,1,6,0.100,47664.000,0.200,23686.000,0.300,4723.000,0.500,1631.000,1.000,1097.000,5.000,0
"07/03/06","00:10:43","AMMA06",78484.000,"cc",28313.717,6.00,2831.372,1,6,0.100,47692.000,0.200,23490.000,0.300,4788.000,0.500,1512.000,1.000,1001.000,5.000,1.000
"07/03/06","00:10:49","AMMA06",78481.000,"cc",28365.008,6.00,2836.501,1,6,0.100,47577.000,0.200,23738.000,0.300,4625.000,0.500,1555.000,1.000,986.000,5.000,0
"07/03/06","00:10:55","AMMA06",78743.000,"cc",28264.756,6.00,2826.476,1,6,0.100,47808.000,0.200,23594.000,0.300,4678.000,0.500,1626.000,1.000,1036.000,5.000,1.000
"07/03/06","00:11:01","AMMA06",78708.000,"cc",28311.578,6.00,2831.158,1,6,0.100,47636.000,0.200,23583.000,0.300,4782.000,0.500,1590.000,1.000,1116.000,5.000,1.000
"07/03/06","00:11:07","AMMA06",78395.000,"cc",28266.647,6.00,2826.665,1,6,0.100,47509.000,0.200,23552.000,0.300,4591.000,0.500,1691.000,1.000,1052.000,5.000,0
"07/03/06","00:11:13","AMMA06",79058.000,"cc",28297.625,6.00,2829.763,1,6,0.100,48155.000,0.200,23547.000,0.300,4665.000,0.500,1635.000,1.000,1054.000,5.000,2.000
"07/03/06","00:11:19","AMMA06",78895.000,"cc",28324.922,6.00,2832.492,1,6,0.100,47702.000,0.200,23870.000,0.300,4681.000,0.500,1576.000,1.000,1066.000,5.000,0
"07/03/06","00:11:25","AMMA06",78702.000,"cc",28342.445,6.00,2834.245,1,6,0.100,47625.000,0.200,23889.000,0.300,4600.000,0.500,1562.000,1.000,1026.000,5.000,0
"07/03/06","00:11:31","AMMA06",78336.000,"cc",28336.869,6.00,2833.687,1,6,0.100,47563.000,0.200,23465.000,0.300,4599.000,0.500,1686.000,1.000,1022.000,5.000,1.000
"07/03/06","00:11:37","AMMA06",78679.000,"cc",28322.732,6.00,2832.273,1,6,0.100,47740.000,0.200,23795.000,0.300,4527.000,0.500,1603.000,1.000,1013.000,5.000,1.000
"07/03/06","00:11:43","AMMA06",78805.000,"cc",28309.398,6.00,2830.940,1,6,0.100,47781.000,0.200,23828.000,0.300,4569.000,0.500,1638.000,1.000,988.000,5.000,1.000
"07/03/06","00:11:49","AMMA06",78663.000,"cc",28314.574,6.00,2831.458,1,6,0.100,47793.000,0.200,23763.000,0.300,4530.000,0.500,1569.000,1.000,1007.000,5.000,1.000
"07/03/06","00:11:55","AMMA06",78567.000,"cc",28294.510,6.00,2829.451,1,6,0.100,47527.000,0.200,23862.000,0.300,4531.000,0.500,1624.000,1.000,1023.000,5.000,0
"07/03/06","00:12:01","AMMA06",78692.000,"cc",28344.295,6.00,2834.430,1,6,0.100,47670.000,0.200,23795.000,0.300,4629.000,0.500,1546.000,1.000,1051.000,5.000,1.000
"07/03/06","00:12:07","AMMA06",78296.000,"cc",28361.131,6.00,2836.113,1,6,0.100,47361.000,0.200,23573.000,0.300,4665.000,0.500,1662.000,1.000,1034.000,5.000,1.000
"07/03/06","00:12:13","AMMA06",78510.000,"cc",28303.627,6.00,2830.363,1,6,0.100,47611.000,0.200,23769.000,0.300,4512.000,0.500,1588.000,1.000,1028.000,5.000,2.000
"07/03/06","00:12:19","AMMA06",78218.000,"cc",28275.625,6.00,2827.563,1,6,0.100,47315.000,0.200,23590.000,0.300,4579.000,0.500,1663.000,1.000,1071.000,5.000,0
"07/03/06","00:12:25","AMMA06",78995.000,"cc",28326.035,6.00,2832.604,1,6,0.100,48068.000,0.200,23639.000,0.300,4602.000,0.500,1666.000,1.000,1020.000,5.000,0
"07/03/06","00:12:31","AMMA06",78469.000,"cc",28352.178,6.00,2835.218,1,6,0.100,47307.000,0.200,23854.000,0.300,4651.000,0.500,1604.000,1.000,1052.000,5.000,1.000
"07/03/06","00:12:37","AMMA06",78633.000,"cc",28311.639,6.00,2831.164,1,6,0.100,47699.000,0.200,23486.000,0.300,4791.000,0.500,1617.000,1.000,1040.000,5.000,0
"07/03/06","00:12:43","AMMA06",78308.000,"cc",28333.902,6.00,2833.390,1,6,0.100,47687.000,0.200,23413.000,0.300,4674.000,0.500,1558.000,1.000,976.000,5.000,0
"07/03/06","00:12:49","AMMA06",78438.000,"cc",28353.887,6.00,2835.389,1,6,0.100,47545.000,0.200,23524.000,0.300,4704.000,0.500,1658.000,1.000,1005.000,5.000,2.000
"07/03/06","00:12:55","AMMA06",78208.000,"cc",28311.715,6.00,2831.172,1,6,0.100,47541.000,0.200,23474.000,0.300,4615.000,0.500,1580.000,1.000,998.000,5.000,0
"07/03/06","00:13:01","AMMA06",78563.000,"cc",28314.996,6.00,2831.500,1,6,0.100,47597.000,0.200,23587.000,0.300,4700.000,0.500,1644.000,1.000,1034.000,5.000,1.000
"07/03/06","00:13:07","AMMA06",78400.000,"cc",28277.822,6.00,2827.783,1,6,0.100,47416.000,0.200,23789.000,0.300,4554.000,0.500,1674.000,1.000,967.000,5.000,0
"07/03/06","00:13:13","AMMA06",78291.000,"cc",28308.838,6.00,2830.884,1,6,0.100,47620.000,0.200,23537.000,0.300,4530.000,0.500,1559.000,1.000,1045.000,5.000,0
"07/03/06","00:13:19","AMMA06",78814.000,"cc",28293.496,6.00,2829.350,1,6,0.100,47750.000,0.200,23808.000,0.300,4608.000,0.500,1614.000,1.000,1034.000,5.000,0
"07/03/06","00:13:25","AMMA06",78843.000,"cc",28293.783,6.00,2829.378,1,6,0.100,47846.000,0.200,23658.000,0.300,4612.000,0.500,1629.000,1.000,1097.000,5.000,1.000
"07/03/06","00:13:31","AMMA06",79329.000,"cc",28322.832,6.00,2832.283,1,6,0.100,48061.000,0.200,23891.000,0.300,4655.000,0.500,1630.000,1.000,1092.000,5.000,0
"07/03/06","00:13:37","AMMA06",78402.000,"cc",28331.561,6.00,2833.156,1,6,0.100,47383.000,0.200,23701.000,0.300,4700.000,0.500,1597.000,1.000,1021.000,5.000,0
"07/03/06","00:13:43","AMMA06",78763.000,"cc",28264.848,6.00,2826.485,1,6,0.100,47873.000,0.200,23559.000,0.300,4686.000,0.500,1605.000,1.000,1040.000,5.000,0
"07/03/06","00:13:49","AMMA06",78642.000,"cc",28382.010,6.00,2838.201,1,6,0.100,47479.000,0.200,23874.000,0.300,4628.000,0.500,1621.000,1.000,1040.000,5.000,0
"07/03/06","00:13:55","AMMA06",78320.000,"cc",28314.606,6.00,2831.461,1,6,0.100,47464.000,0.200,23605.000,0.300,4526.000,0.500,1645.000,1.000,1080.000,5.000,0